Regional Weather Roundup
Issued by NWS

Home | Current Version | Previous Version | Graphics & Text | Print | Product List | Glossary On
Versions: 1 2 3 4 5 6 7 8 9 10 11 12 13 14 15 16 17 18 19 20 21 22 23 24 25 26 27 28 29 30 31 32 33 34 35 36 37 38 39 40 41 42 43 44 45 46 47 48 49 50
000
ASUS43 KIND 240609
RWRIN

WEATHER ROUNDUP FOR INDIANA
NATIONAL WEATHER SERVICE INDIANAPOLIS IN
200 AM EDT FRI OCT 24 2014

NOTE: "FAIR" INDICATES FEW OR NO CLOUDS BELOW 12,000 FEET WITH NO
SIGNIFICANT WEATHER AND/OR OBSTRUCTIONS TO VISIBILITY.

* - STATION DOES NOT REPORT WEATHER SUCH AS PRECIPITATION OR FOG.

+ - STATION NOT QUALITY CONTROLLED BY THE NATIONAL WEATHER SERVICE.
    USE DATA WITH CAUTION...ESPECIALLY DEWPOINT AND RELATIVE
    HUMIDITY OBSERVATIONS.

INZ001>003-010>013-019-020-240700-
NORTHWEST INDIANA

CITY           SKY/WX    TMP DP  RH WIND       PRES   REMARKS
GARY /AIRPORT/ CLOUDY    55  42  62 S3        30.07F
KNOX *+        CLOUDY    49  41  76 CALM      30.08F
LA PORTE +     CLOUDY    51  43  75 CALM      30.09S
6HR MIN TEMP:  45; 6HR MAX TEMP:  53;

MICHIGAN CITY+ CLOUDY    52  39  62 S10       30.08S
MONTICELLO +   CLOUDY    46  45  94 CALM      30.09F
RENSSELAER +   CLOUDY    50  45  81 CALM      30.09S
VALPARAISO     CLOUDY    51  42  71 SW6       30.08F
6HR MIN TEMP:  49; 6HR MAX TEMP:  52;


$$

LMZ046-743>745-240700-
SOUTHERN LAKE MICHIGAN

STATION/POSITION TIME  TEMP WIND        PRES
                       AIR  DIR/SP/G
                 (UTC) (F)  (DEG/KT/KT) (MB)
MICHIGAN CITY    0600   53  170/  8/ 10   N/A

$$

INZ004-005-014>016-021>024-240700-
NORTH CENTRAL INDIANA

CITY           SKY/WX    TMP DP  RH WIND       PRES   REMARKS
GOSHEN         CLOUDY    42  39  89 CALM      30.09S FOG
6HR MIN TEMP:  39; 6HR MAX TEMP:  51;

LOGANSPORT +   MOCLDY    41  37  87 S3        30.11S
ROCHESTER +    MOCLDY    46  43  87 CALM      30.10S
SOUTH BEND     CLOUDY    50  42  74 SW3       30.10S
6HR MIN TEMP:  43; 6HR MAX TEMP:  53;

WARSAW +       PTCLDY    37  37 100 CALM      30.10R

$$

INZ006>009-017-018-025>027-240700-
NORTHEAST INDIANA

CITY           SKY/WX    TMP DP  RH WIND       PRES   REMARKS
ANGOLA *+      CLEAR     37  37 100 CALM      30.09S
AUBURN +       PTCLDY    37  36  93 CALM      30.10S
FORT WAYNE     MOCLDY    39  36  89 S3        30.11F
6HR MIN TEMP:  38; 6HR MAX TEMP:  50;

HUNTINGTON +   PTCLDY    40  39  99 CALM      30.10S
6HR MIN TEMP:  38; 6HR MAX TEMP:  51;


$$

INZ028-029-035-036-043>045-051>053-240700-
WEST CENTRAL INDIANA

CITY           SKY/WX    TMP DP  RH WIND       PRES   REMARKS
GREENCASTLE +  PTCLDY    41  39  93 CALM      30.12R
LAFAYETTE      CLOUDY    43  41  93 CALM      30.10F
6HR MIN TEMP:  41; 6HR MAX TEMP:  50;

TERRE HAUTE    PTCLDY    43  41  93 CALM      30.11S
6HR MIN TEMP:  43; 6HR MAX TEMP:  51;


$$

INZ030>032-037>040-046>048-054>057-064-065-240700-
CENTRAL INDIANA

CITY           SKY/WX    TMP DP  RH WIND       PRES   REMARKS
CP ATTERBURY + CLOUDY    43  39  87 CALM      30.12S
FRANKFORT +    PTCLDY    40  40 100 SE3       30.12F
INDIANAPOLIS   MOCLDY    45  39  79 NW3       30.11R
6HR MIN TEMP:  45; 6HR MAX TEMP:  53;

-EAGLE CREEK   PTCLDY    44  40  85 CALM      30.11R
6HR MIN TEMP:  44; 6HR MAX TEMP:  51;

KOKOMO *+      PTCLDY    39  36  87 S3        30.11F
MARION +       MOCLDY    40  37  90 S3        30.11F
MT COMFORT *+  MOCLDY    41  41 100 CALM      30.12S
SHELBYVILLE    CLOUDY    42  39  89 NW3       30.11R
6HR MIN TEMP:  42; 6HR MAX TEMP:  49;

ZIONSVILLE +   PTCLDY    39  35  87 CALM      30.12S
6HR MIN TEMP:  39; 6HR MAX TEMP:  50;


$$

INZ033-034-041-042-049-050-058-059-240700-
EAST CENTRAL INDIANA

CITY           SKY/WX    TMP DP  RH WIND       PRES   REMARKS
MUNCIE         MOCLDY    41  39  93 CALM      30.11S
6HR MIN TEMP:  41; 6HR MAX TEMP:  51;


$$

INZ060-061-067>069-081>083-085>088-240700-
SOUTHWEST INDIANA

CITY           SKY/WX    TMP DP  RH WIND       PRES   REMARKS
EVANSVILLE     CLEAR     45  43  93 CALM      30.13R
6HR MIN TEMP:  45; 6HR MAX TEMP:  55;

HUNTINGBURG *+ MOCLDY    45  41  87 CALM      30.12F
6HR MIN TEMP:  45; 6HR MAX TEMP:  52;

WASHINGTON +   PTCLDY    40  40 100 CALM      30.12R
6HR MIN TEMP:  40; 6HR MAX TEMP:  52;


$$

INZ062-063-066-070>080-084-089>092-240700-
SOUTH CENTRAL AND SOUTHEAST INDIANA

CITY           SKY/WX    TMP DP  RH WIND       PRES   REMARKS
BEDFORD +      MOCLDY    45  41  87 CALM      30.11
BLOOMINGTON    PTCLDY    41  40  96 CALM      30.11S
6HR MIN TEMP:  41; 6HR MAX TEMP:  51;


$$




USA.gov is the U.S. government's official web portal to all federal, state and local government web resources and services.